Nebraska City, NE

3:14 AM CDT on April 23, 2017 (GMT -0500)
Nebraska City Municipal

Weather History for KAFK - March, 2013

Change the Weather History Date:

Saturday, March 9, 2013

  Actual Average (KSDA) Record (KSDA)
Temperature  
Mean Temperature 48 °F -  
Max Temperature 55 °F 50 °F 77 °F (1992)
Min Temperature 40 °F 26 °F -1 °F (1978)
Degree Days  
Heating Degree Days 18    
Moisture  
Dew Point 45 °F    
Average Humidity 86    
Maximum Humidity 100    
Minimum Humidity 73    
Precipitation  
Precipitation 0.18 in - - ()
Sea Level Pressure  
Sea Level Pressure 29.70 in    
Wind  
Wind Speed 12 mph (SSE)    
Max Wind Speed 29 mph    
Max Gust Speed 34 mph    
Visibility 8 miles    
Events Rain , Thunderstorm    
Averages and records for this station are not official NWS values.
T = Trace of Precipitation, MM = Missing Value Source: NWS Daily Summary

Daily Weather History Graph

Daily Weather History Graph

Search for Another Location

Airport or City:

Trip Planner

Search our weather history database for the weather conditions in past years. The results will help you decide how hot, cold, wet, or windy it might be!

Date:

Astronomy

Mar. 09, 2013 Rise Set
Actual Time 6:44 AM CST 6:24 PM CST
Civil Twilight 6:17 AM CST 6:51 PM CST
Nautical Twilight 5:45 AM CST 7:23 PM CST
Astronomical Twilight 5:13 AM CST 7:54 PM CST
Moon 5:09 AM CST (3/9) 4:26 PM CST (3/9)
Length of Visible Light 12h 34m
Length of Day
11h 39m
Waning Crescent, 5% of the Moon is Illuminated
Mar 9
Waning Crescent
Mar 11
New
Mar 19
First Quarter
Mar 27
Full
Apr 2
Last Quarter

Hourly Weather History & Observations

Time (CST) Temp. Windchill Dew Point Humidity Pressure Visibility Wind Dir Wind Speed Gust Speed Precip Events Conditions
12:15 AM 44.4 °F 39.5 °F 37.9 °F 78% 29.90 in 10.0 mi SSE 9.2 mph - N/A   Overcast
12:35 AM 44.6 °F 40.2 °F 38.3 °F 79% 29.90 in 10.0 mi SSE 8.1 mph - N/A Thunderstorm Overcast
12:55 AM 44.8 °F 39.9 °F 38.5 °F 79% 29.90 in 10.0 mi SSE 9.2 mph - N/A   Overcast
1:15 AM 45.1 °F 39.9 °F 38.5 °F 77% 29.90 in 10.0 mi SSE 10.4 mph - N/A Thunderstorm Overcast
1:35 AM 45.7 °F 40.2 °F 38.5 °F 76% 29.89 in 10.0 mi South 11.5 mph - N/A Thunderstorm Overcast
1:55 AM 45.5 °F 39.9 °F 38.8 °F 78% 29.89 in 10.0 mi South 11.5 mph - N/A   Overcast
2:15 AM 45.9 °F 40.8 °F 38.8 °F 76% 29.87 in 10.0 mi South 10.4 mph - N/A   Overcast
2:35 AM 45.7 °F 40.6 °F 39.0 °F 78% 29.87 in 10.0 mi SSE 10.4 mph - N/A   Overcast
3:15 AM 46.4 °F 41.9 °F 38.5 °F 74% 29.83 in 10.0 mi SSE 9.2 mph - N/A   Overcast
3:35 AM 46.4 °F 41.5 °F 38.5 °F 74% 29.82 in 10.0 mi SSE 10.4 mph - N/A   Overcast
3:55 AM 45.9 °F 41.2 °F 38.5 °F 75% 29.82 in 10.0 mi SE 9.2 mph - N/A   Overcast
4:15 AM 45.5 °F 40.3 °F 38.3 °F 76% 29.81 in 10.0 mi SE 10.4 mph - N/A   Overcast
4:35 AM 45.5 °F 40.3 °F 38.3 °F 76% 29.79 in 10.0 mi SE 10.4 mph - N/A   Overcast
4:55 AM 45.0 °F 40.1 °F 38.3 °F 77% 29.79 in 10.0 mi SSE 9.2 mph - N/A   Scattered Clouds
5:15 AM 45.5 °F 39.9 °F 38.7 °F 77% 29.79 in 10.0 mi SSE 11.5 mph - N/A   Mostly Cloudy
5:35 AM 45.5 °F 41.3 °F 38.7 °F 77% 29.79 in 10.0 mi SSE 8.1 mph - N/A   Overcast
5:55 AM 45.9 °F 40.8 °F 38.8 °F 76% 29.79 in 10.0 mi SSE 10.4 mph - N/A   Overcast
6:15 AM 45.9 °F 43.6 °F 38.8 °F 76% 29.79 in 10.0 mi SSE 4.6 mph - N/A   Overcast
6:35 AM 45.7 °F 40.6 °F 39.2 °F 78% 29.78 in 10.0 mi SSE 10.4 mph - N/A   Overcast
6:55 AM 46.0 °F 41.0 °F 38.8 °F 76% 29.77 in 10.0 mi SE 10.4 mph - N/A   Overcast
7:15 AM 46.2 °F 42.7 °F 39.0 °F 76% 29.76 in 7.0 mi SE 6.9 mph - N/A   Overcast
7:35 AM 46.4 °F 41.1 °F 39.2 °F 76% 29.74 in 7.0 mi SSE 11.5 mph - N/A   Overcast
7:55 AM 47.3 °F - 39.2 °F 73% 29.72 in 7.0 mi SSE 16.1 mph 24.2 mph N/A   Overcast
8:15 AM 47.3 °F - 39.2 °F 73% 29.71 in 7.0 mi SSE 23.0 mph 27.6 mph N/A   Overcast
8:35 AM 47.7 °F - 39.6 °F 73% 29.70 in 10.0 mi SSE 21.9 mph 29.9 mph N/A   Overcast
8:55 AM 48.2 °F - 40.8 °F 76% 29.73 in 10.0 mi South 17.3 mph 27.6 mph N/A   Overcast
9:15 AM 48.2 °F - 41.9 °F 79% 29.74 in 7.0 mi South 19.6 mph 25.3 mph N/A Rain Light Rain
9:35 AM 47.5 °F - 42.8 °F 84% 29.72 in 7.0 mi South 19.6 mph 23.0 mph N/A   Drizzle
9:55 AM 46.8 °F - 43.9 °F 90% 29.70 in 5.0 mi SSE 20.7 mph 24.2 mph N/A   Light Drizzle
10:15 AM 47.5 °F - 45.9 °F 94% 29.68 in 5.0 mi SSE 21.9 mph 27.6 mph N/A Rain Light Rain
10:35 AM 47.8 °F - 46.6 °F 95% 29.66 in 5.0 mi SSE 21.9 mph 31.1 mph N/A   Overcast
10:55 AM 48.4 °F - 46.9 °F 95% 29.66 in 5.0 mi SSE 21.9 mph 29.9 mph N/A   Overcast
11:15 AM 49.6 °F - 48.2 °F 95% 29.66 in 7.0 mi South 24.2 mph 31.1 mph N/A   Overcast
11:35 AM 50.0 °F - 48.2 °F 94% 29.67 in 7.0 mi South 28.8 mph 34.5 mph N/A   Overcast
11:55 AM 50.0 °F - 48.6 °F 95% 29.66 in 7.0 mi South 16.1 mph 28.8 mph N/A   Overcast
12:15 PM 50.5 °F - 49.1 °F 95% 29.64 in 7.0 mi South 20.7 mph 25.3 mph N/A   Overcast
12:35 PM 51.3 °F - 48.7 °F 91% 29.65 in 10.0 mi South 19.6 mph - N/A   Overcast
12:55 PM 51.6 °F - 48.9 °F 90% 29.64 in 10.0 mi South 17.3 mph 25.3 mph N/A   Overcast
1:15 PM 52.2 °F - 49.1 °F 89% 29.64 in 10.0 mi South 17.3 mph - N/A   Overcast
1:35 PM 53.4 °F - 49.5 °F 86% 29.64 in 10.0 mi SSW 17.3 mph - N/A   Overcast
1:55 PM 54.0 °F - 49.8 °F 86% 29.61 in 10.0 mi South 13.8 mph - N/A   Overcast
2:15 PM 54.1 °F - 48.2 °F 80% 29.60 in 10.0 mi South 17.3 mph - N/A   Overcast
2:35 PM 53.4 °F - 47.8 °F 81% 29.64 in 10.0 mi SSW 16.1 mph 20.7 mph N/A   Overcast
2:55 PM 52.9 °F - 48.0 °F 84% 29.65 in 10.0 mi SSW 15.0 mph - N/A   Light Drizzle
3:15 PM 53.6 °F - 49.1 °F 85% 29.64 in 10.0 mi South 12.7 mph 21.9 mph N/A   Light Drizzle
3:35 PM 54.9 °F - 49.3 °F 81% 29.62 in 10.0 mi South 11.5 mph - N/A   Mostly Cloudy
3:55 PM 55.4 °F - 49.3 °F 80% 29.62 in 10.0 mi South 12.7 mph - N/A   Mostly Cloudy
4:15 PM 55.0 °F - 49.3 °F 81% 29.60 in 10.0 mi South 12.7 mph - N/A   Overcast
4:35 PM 54.1 °F - 49.8 °F 85% 29.58 in 7.0 mi SE 17.3 mph 20.7 mph N/A   Light Drizzle
4:55 PM 53.8 °F - 50.2 °F 88% 29.56 in 7.0 mi SE 16.1 mph 20.7 mph N/A   Mostly Cloudy
5:15 PM 53.6 °F - 51.1 °F 91% 29.57 in 7.0 mi SSE 17.3 mph 23.0 mph N/A   Mostly Cloudy
5:35 PM 53.6 °F - 51.4 °F 92% 29.57 in 7.0 mi SSE 16.1 mph 26.5 mph N/A   Overcast
5:55 PM 53.8 °F - 51.8 °F 93% 29.57 in 7.0 mi South 19.6 mph 25.3 mph N/A   Overcast
6:15 PM 53.6 °F - 51.8 °F 94% 29.58 in 7.0 mi South 18.4 mph 21.9 mph N/A   Overcast
6:35 PM 53.6 °F - 52.2 °F 95% 29.59 in 10.0 mi South 10.4 mph - N/A   Overcast
6:55 PM 53.4 °F - 52.0 °F 95% 29.59 in 10.0 mi South 10.4 mph - N/A   Overcast
7:15 PM 52.5 °F - 51.4 °F 96% 29.59 in 7.0 mi Calm Calm - N/A   Overcast
7:35 PM 51.1 °F - 50.4 °F 97% 29.58 in 5.0 mi SSE 6.9 mph - N/A   Scattered Clouds
7:55 PM 50.7 °F - 50.2 °F 98% 29.59 in 5.0 mi Calm Calm - N/A   Clear
8:15 PM 50.7 °F - 50.4 °F 99% 29.59 in 5.0 mi Calm Calm - N/A   Scattered Clouds
8:35 PM 50.4 °F - 50.0 °F 99% 29.61 in 4.0 mi Calm Calm - N/A   Mostly Cloudy
8:55 PM 50.7 °F - 50.2 °F 98% 29.61 in 4.0 mi Calm Calm - N/A   Overcast
9:15 PM 50.5 °F - 50.2 °F 99% 29.63 in 4.0 mi Calm Calm - N/A   Overcast
9:35 PM 50.4 °F - 50.0 °F 99% 29.64 in 2.5 mi Calm Calm - N/A Rain Heavy Rain
9:55 PM 44.6 °F 36.4 °F 43.9 °F 97% 29.65 in 2.0 mi NNW 20.7 mph 26.5 mph 0.01 in Rain Light Rain
10:15 PM 41.9 °F 33.7 °F 41.9 °F 100% 29.66 in 2.5 mi North 17.3 mph 21.9 mph N/A Rain Light Rain
10:35 PM 41.9 °F 33.4 °F 41.5 °F 99% 29.67 in 4.0 mi North 18.4 mph 21.9 mph 0.01 in Rain Rain
10:55 PM 41.0 °F 33.5 °F 41.0 °F 100% 29.68 in 5.0 mi North 13.8 mph 20.7 mph 0.01 in   Light Drizzle
11:15 PM 40.5 °F 31.8 °F 40.3 °F 99% 29.67 in 5.0 mi North 17.3 mph 24.2 mph N/A   Overcast
11:35 PM 40.5 °F 31.8 °F 40.3 °F 99% 29.65 in 2.5 mi NNE 17.3 mph 21.9 mph 0.04 in Rain Heavy Rain
11:55 PM 40.1 °F 30.7 °F 40.1 °F 100% 29.64 in 2.0 mi NNE 19.6 mph - 0.16 in Rain Rain